Location: Krakow
(50.0830°N, 19.9170°E)
Time: 16:52:42
(UTC+01:00)

Transit 2A Rocket - Pass Details

Date: 14 December 2023
Orbit: 590 x 905 km, 66.7° (Epoch: 03 March)

Event Time Altitude Azimuth Distance (km) Brightness Sun altitude
Rises 19:34:38 0° 232° (SW) 2,961 8.6 -36.6°
Reaches altitude 10° 19:37:03 10° 238° (WSW) 2,014 7.7 -37.0°
Enters shadow 19:37:20 12° 239° (WSW) 1,906 7.5 -37.0°
